Time,TemperatureF,DewpointF,PressureIn,WindDirection,WindDirectionDegrees,WindSpeedMPH,WindSpeedGustMPH,Humidity,HourlyPrecipIn,Conditions,Clouds,dailyrainin,SoftwareType,DateUTC
2013-11-25 00:08:00,31.5,30.0,30.35,WNW,302,0.0,1.0,94,0.00,,,0.00,weatherlink.com 1.10,2013-11-25 06:08:00,
2013-11-25 00:23:00,31.5,30.0,30.32,NE,43,3.0,5.0,94,0.00,,,0.00,weatherlink.com 1.10,2013-11-25 06:23:00,
2013-11-25 00:38:00,31.2,30.0,30.30,WNW,300,1.0,7.0,95,0.00,,,0.00,weatherlink.com 1.10,2013-11-25 06:38:00,
2013-11-25 00:53:00,31.3,30.0,30.31,NNE,32,1.0,5.0,95,0.00,,,0.00,weatherlink.com 1.10,2013-11-25 06:53:00,
2013-11-25 01:08:00,31.3,30.0,30.30,ENE,68,1.0,4.0,95,0.00,,,0.00,weatherlink.com 1.10,2013-11-25 07:08:00,
2013-11-25 01:23:00,31.3,30.0,30.30,NW,309,4.0,5.0,95,0.00,,,0.00,weatherlink.com 1.10,2013-11-25 07:23:00,
2013-11-25 01:38:00,31.4,30.0,30.29,NE,37,0.0,4.0,95,0.00,,,0.00,weatherlink.com 1.10,2013-11-25 07:38:00,
2013-11-25 01:53:00,31.5,30.0,30.29,NNW,345,0.0,196.0,95,0.00,,,0.00,weatherlink.com 1.10,2013-11-25 07:53:00,
2013-11-25 02:08:00,31.5,30.0,30.30,West,260,0.0,3.0,95,0.00,,,0.00,weatherlink.com 1.10,2013-11-25 08:08:00,
2013-11-25 02:23:00,31.6,30.0,30.29,ENE,77,0.0,170.0,95,0.00,,,0.00,weatherlink.com 1.10,2013-11-25 08:23:00,
2013-11-25 02:38:00,31.7,31.0,30.27,SW,221,0.0,2.0,95,0.00,,,0.00,weatherlink.com 1.10,2013-11-25 08:38:00,
2013-11-25 02:53:00,31.7,31.0,30.26,SSW,212,0.0,2.0,95,0.00,,,0.00,weatherlink.com 1.10,2013-11-25 08:53:00,
2013-11-25 03:08:00,31.7,31.0,30.25,SSW,205,1.0,3.0,95,0.00,,,0.00,weatherlink.com 1.10,2013-11-25 09:08:00,
2013-11-25 03:23:00,31.7,31.0,30.26,SSW,203,0.0,3.0,95,0.00,,,0.00,weatherlink.com 1.10,2013-11-25 09:23:00,
2013-11-25 03:38:00,31.6,30.0,30.25,ENE,63,0.0,0.0,95,0.00,,,0.00,weatherlink.com 1.10,2013-11-25 09:38:00,
2013-11-25 03:53:00,31.8,31.0,30.26,ENE,63,1.0,1.0,95,0.00,,,0.00,weatherlink.com 1.10,2013-11-25 09:53:00,
2013-11-25 04:08:00,31.9,31.0,30.25,NE,55,0.0,182.0,95,0.00,,,0.00,weatherlink.com 1.10,2013-11-25 10:08:00,
2013-11-25 04:23:00,32.0,31.0,30.24,SE,138,0.0,0.0,95,0.00,,,0.00,weatherlink.com 1.10,2013-11-25 10:23:00,
2013-11-25 04:38:00,32.1,31.0,30.24,NW,311,0.0,2.0,95,0.00,,,0.00,weatherlink.com 1.10,2013-11-25 10:38:00,
2013-11-25 04:53:00,32.1,31.0,30.23,NNW,344,1.0,2.0,96,0.00,,,0.00,weatherlink.com 1.10,2013-11-25 10:53:00,
2013-11-25 05:08:00,32.1,31.0,30.24,NW,314,1.0,2.0,96,0.00,,,0.00,weatherlink.com 1.10,2013-11-25 11:08:00,
2013-11-25 05:23:00,32.1,31.0,30.24,WNW,299,0.0,3.0,96,0.00,,,0.00,weatherlink.com 1.10,2013-11-25 11:23:00,
2013-11-25 05:38:00,32.1,31.0,30.23,NNW,328,1.0,229.0,96,0.00,,,0.00,weatherlink.com 1.10,2013-11-25 11:38:00,
2013-11-25 05:53:00,32.2,31.0,30.22,NNE,14,0.0,1.0,96,0.00,,,0.00,weatherlink.com 1.10,2013-11-25 11:53:00,
2013-11-25 06:08:00,32.1,31.0,30.22,North,1,0.0,1.0,96,0.00,,,0.00,weatherlink.com 1.10,2013-11-25 12:08:00,
2013-11-25 06:23:00,32.1,31.0,30.21,NNE,23,0.0,1.0,96,0.00,,,0.00,weatherlink.com 1.10,2013-11-25 12:23:00,
2013-11-25 06:38:00,32.3,31.0,30.20,East,95,0.0,2.0,96,0.01,,,0.01,weatherlink.com 1.10,2013-11-25 12:38:00,
2013-11-25 06:53:00,32.3,31.0,30.21,SE,138,0.0,1.0,96,0.01,,,0.01,weatherlink.com 1.10,2013-11-25 12:53:00,
2013-11-25 07:08:00,32.4,31.0,30.20,SE,138,0.0,1.0,96,0.01,,,0.01,weatherlink.com 1.10,2013-11-25 13:08:00,
2013-11-25 07:23:00,32.5,32.0,30.21,NW,306,2.0,3.0,96,0.03,,,0.03,weatherlink.com 1.10,2013-11-25 13:23:00,
2013-11-25 07:38:00,32.7,32.0,30.22,WNW,300,0.0,1.0,97,0.03,,,0.04,weatherlink.com 1.10,2013-11-25 13:38:00,
2013-11-25 07:53:00,32.8,32.0,30.20,East,81,0.0,1.0,96,0.03,,,0.04,weatherlink.com 1.10,2013-11-25 13:53:00,
2013-11-25 08:09:00,33.0,32.0,30.21,NW,315,2.0,3.0,96,0.03,,,0.04,weatherlink.com 1.10,2013-11-25 14:09:00,
2013-11-25 08:24:00,33.0,32.0,30.21,North,9,1.0,3.0,96,0.01,,,0.04,weatherlink.com 1.10,2013-11-25 14:24:00,
2013-11-25 08:39:00,33.1,32.0,30.22,East,82,0.0,4.0,96,0.00,,,0.04,weatherlink.com 1.10,2013-11-25 14:39:00,
2013-11-25 08:54:00,33.2,32.0,30.22,NNE,18,1.0,6.0,96,0.00,,,0.04,weatherlink.com 1.10,2013-11-25 14:54:00,
2013-11-25 09:09:00,33.6,33.0,30.22,NW,322,1.0,6.0,96,0.00,,,0.04,weatherlink.com 1.10,2013-11-25 15:09:00,
2013-11-25 09:24:00,34.0,33.0,30.23,NW,316,1.0,3.0,96,0.00,,,0.04,weatherlink.com 1.10,2013-11-25 15:24:00,
2013-11-25 09:39:00,34.1,33.0,30.22,NE,38,3.0,5.0,96,0.01,,,0.05,weatherlink.com 1.10,2013-11-25 15:39:00,
2013-11-25 09:54:00,34.1,33.0,30.22,NNE,25,1.0,4.0,96,0.01,,,0.05,weatherlink.com 1.10,2013-11-25 15:54:00,
2013-11-25 10:09:00,34.2,33.0,30.22,NNW,332,1.0,5.0,96,0.01,,,0.05,weatherlink.com 1.10,2013-11-25 16:09:00,
2013-11-25 10:24:00,34.5,34.0,30.22,WNW,298,2.0,6.0,96,0.01,,,0.05,weatherlink.com 1.10,2013-11-25 16:24:00,
2013-11-25 10:39:00,34.6,34.0,30.22,NNW,343,7.0,7.0,96,0.00,,,0.05,weatherlink.com 1.10,2013-11-25 16:39:00,
2013-11-25 10:54:00,35.0,34.0,30.21,WNW,303,5.0,6.0,96,0.01,,,0.06,weatherlink.com 1.10,2013-11-25 16:54:00,
2013-11-25 11:09:00,35.6,35.0,30.20,NW,309,5.0,7.0,96,0.01,,,0.06,weatherlink.com 1.10,2013-11-25 17:09:00,
2013-11-25 11:24:00,36.5,36.0,30.19,NW,323,5.0,9.0,96,0.01,,,0.06,weatherlink.com 1.10,2013-11-25 17:24:00,
2013-11-25 11:39:00,37.1,36.0,30.18,NW,308,5.0,9.0,95,0.01,,,0.06,weatherlink.com 1.10,2013-11-25 17:39:00,
2013-11-25 11:54:00,37.3,36.0,30.18,NW,316,3.0,7.0,93,0.00,,,0.06,weatherlink.com 1.10,2013-11-25 17:54:00,
2013-11-25 12:09:00,37.2,35.0,30.17,North,353,7.0,11.0,92,0.00,,,0.06,weatherlink.com 1.10,2013-11-25 18:09:00,
2013-11-25 12:24:00,37.3,35.0,30.17,WNW,283,6.0,11.0,91,0.00,,,0.06,weatherlink.com 1.10,2013-11-25 18:24:00,
2013-11-25 12:39:00,37.3,35.0,30.16,NW,307,5.0,11.0,91,0.00,,,0.06,weatherlink.com 1.10,2013-11-25 18:39:00,
2013-11-25 12:54:00,37.7,35.0,30.14,WNW,289,1.0,11.0,90,0.00,,,0.06,weatherlink.com 1.10,2013-11-25 18:54:00,
2013-11-25 13:09:00,37.8,35.0,30.14,West,281,8.0,12.0,89,0.00,,,0.06,weatherlink.com 1.10,2013-11-25 19:09:00,
2013-11-25 13:24:00,37.9,35.0,30.13,NW,323,6.0,15.0,88,0.00,,,0.06,weatherlink.com 1.10,2013-11-25 19:24:00,
2013-11-25 13:39:00,38.2,35.0,30.13,WNW,284,5.0,11.0,89,0.00,,,0.06,weatherlink.com 1.10,2013-11-25 19:39:00,
2013-11-25 13:54:00,38.2,35.0,30.12,WNW,291,5.0,11.0,89,0.00,,,0.06,weatherlink.com 1.10,2013-11-25 19:54:00,
2013-11-25 14:09:00,38.3,35.0,30.12,WNW,289,6.0,11.0,89,0.00,,,0.06,weatherlink.com 1.10,2013-11-25 20:09:00,
2013-11-25 14:24:00,38.3,35.0,30.11,North,4,6.0,12.0,89,0.00,,,0.06,weatherlink.com 1.10,2013-11-25 20:24:00,
2013-11-25 14:39:00,38.4,36.0,30.11,North,360,7.0,8.0,89,0.00,,,0.06,weatherlink.com 1.10,2013-11-25 20:39:00,
2013-11-25 14:54:00,38.5,36.0,30.11,North,10,4.0,9.0,89,0.00,,,0.06,weatherlink.com 1.10,2013-11-25 20:54:00,
2013-11-25 15:09:00,38.8,36.0,30.11,WNW,300,4.0,9.0,89,0.00,,,0.06,weatherlink.com 1.10,2013-11-25 21:09:00,
2013-11-25 15:24:00,38.7,36.0,30.09,NNE,15,3.0,8.0,89,0.00,,,0.06,weatherlink.com 1.10,2013-11-25 21:24:00,
2013-11-25 15:39:00,38.7,36.0,30.09,NW,307,5.0,11.0,89,0.00,,,0.06,weatherlink.com 1.10,2013-11-25 21:39:00,
2013-11-25 15:54:00,38.8,36.0,30.09,NNW,330,4.0,9.0,89,0.00,,,0.06,weatherlink.com 1.10,2013-11-25 21:54:00,
2013-11-25 16:09:00,38.6,36.0,30.11,NW,314,3.0,8.0,90,0.00,,,0.06,weatherlink.com 1.10,2013-11-25 22:09:00,
2013-11-25 16:24:00,38.6,36.0,30.11,NW,308,2.0,10.0,89,0.00,,,0.06,weatherlink.com 1.10,2013-11-25 22:24:00,
2013-11-25 16:39:00,38.4,36.0,30.12,NNW,327,3.0,11.0,90,0.00,,,0.06,weatherlink.com 1.10,2013-11-25 22:39:00,
2013-11-25 16:54:00,38.3,36.0,30.12,North,354,2.0,12.0,90,0.00,,,0.06,weatherlink.com 1.10,2013-11-25 22:54:00,
2013-11-25 17:09:00,38.2,36.0,30.12,NW,326,4.0,10.0,90,0.00,,,0.06,weatherlink.com 1.10,2013-11-25 23:09:00,
2013-11-25 17:24:00,38.1,36.0,30.12,WNW,301,4.0,10.0,90,0.00,,,0.06,weatherlink.com 1.10,2013-11-25 23:24:00,
2013-11-25 17:39:00,38.2,36.0,30.14,NW,304,7.0,7.0,90,0.00,,,0.06,weatherlink.com 1.10,2013-11-25 23:39:00,
2013-11-25 17:54:00,38.2,36.0,30.13,NW,308,7.0,10.0,90,0.00,,,0.06,weatherlink.com 1.10,2013-11-25 23:54:00,
2013-11-25 18:09:00,38.1,36.0,30.15,NW,314,8.0,10.0,90,0.00,,,0.06,weatherlink.com 1.10,2013-11-26 00:09:00,
2013-11-25 18:24:00,37.9,35.0,30.15,WNW,302,12.0,13.0,90,0.00,,,0.06,weatherlink.com 1.10,2013-11-26 00:24:00,
2013-11-25 18:39:00,37.8,35.0,30.15,NNE,12,8.0,11.0,90,0.00,,,0.06,weatherlink.com 1.10,2013-11-26 00:39:00,
2013-11-25 18:55:00,37.9,36.0,30.16,North,360,5.0,12.0,91,0.00,,,0.06,weatherlink.com 1.10,2013-11-26 00:55:00,
2013-11-25 19:10:00,37.9,36.0,30.16,WNW,285,6.0,9.0,91,0.00,,,0.06,weatherlink.com 1.10,2013-11-26 01:10:00,
2013-11-25 19:25:00,37.8,35.0,30.15,NW,311,3.0,13.0,90,0.00,,,0.06,weatherlink.com 1.10,2013-11-26 01:25:00,
2013-11-25 19:40:00,37.7,35.0,30.15,NW,323,10.0,13.0,90,0.00,,,0.06,weatherlink.com 1.10,2013-11-26 01:40:00,
2013-11-25 19:55:00,37.6,35.0,30.14,WNW,288,8.0,15.0,90,0.00,,,0.06,weatherlink.com 1.10,2013-11-26 01:55:00,
2013-11-25 20:10:00,37.5,35.0,30.14,NNW,346,4.0,21.0,90,0.00,,,0.06,weatherlink.com 1.10,2013-11-26 02:10:00,
2013-11-25 20:25:00,37.4,35.0,30.13,NW,309,10.0,19.0,89,0.00,,,0.06,weatherlink.com 1.10,2013-11-26 02:25:00,
2013-11-25 20:40:00,37.2,35.0,30.13,WNW,298,4.0,13.0,90,0.00,,,0.06,weatherlink.com 1.10,2013-11-26 02:40:00,
2013-11-25 20:55:00,37.2,35.0,30.14,NNW,328,3.0,12.0,90,0.00,,,0.06,weatherlink.com 1.10,2013-11-26 02:55:00,
2013-11-25 21:10:00,37.0,34.0,30.14,WNW,292,7.0,17.0,90,0.00,,,0.06,weatherlink.com 1.10,2013-11-26 03:10:00,
2013-11-25 21:25:00,36.8,34.0,30.15,NW,316,4.0,18.0,90,0.00,,,0.06,weatherlink.com 1.10,2013-11-26 03:25:00,
2013-11-25 21:40:00,36.9,34.0,30.17,NW,308,10.0,15.0,90,0.00,,,0.06,weatherlink.com 1.10,2013-11-26 03:40:00,
2013-11-25 21:55:00,37.1,35.0,30.17,WNW,302,3.0,11.0,90,0.00,,,0.06,weatherlink.com 1.10,2013-11-26 03:55:00,
2013-11-25 22:10:00,37.2,35.0,30.18,NNE,20,3.0,14.0,90,0.00,,,0.06,weatherlink.com 1.10,2013-11-26 04:10:00,
2013-11-25 22:25:00,37.2,35.0,30.17,North,356,9.0,12.0,90,0.00,,,0.06,weatherlink.com 1.10,2013-11-26 04:25:00,
2013-11-25 22:40:00,37.3,35.0,30.16,WNW,298,11.0,17.0,90,0.00,,,0.06,weatherlink.com 1.10,2013-11-26 04:40:00,
2013-11-25 22:55:00,37.3,35.0,30.17,WNW,298,8.0,12.0,90,0.00,,,0.06,weatherlink.com 1.10,2013-11-26 04:55:00,
2013-11-25 23:10:00,37.3,35.0,30.16,WNW,290,6.0,11.0,90,0.00,,,0.06,weatherlink.com 1.10,2013-11-26 05:10:00,
2013-11-25 23:25:00,37.3,35.0,30.14,NW,312,9.0,14.0,90,0.00,,,0.06,weatherlink.com 1.10,2013-11-26 05:25:00,
2013-11-25 23:40:00,37.1,35.0,30.15,NW,320,2.0,17.0,91,0.00,,,0.06,weatherlink.com 1.10,2013-11-26 05:40:00,
2013-11-25 23:55:00,36.9,35.0,30.18,WNW,295,7.0,13.0,91,0.00,,,0.06,weatherlink.com 1.10,2013-11-26 05:55:00,